Home > Time Zones > World Clock > Weather > Iran > Rasht > Past weeks

Flag for Iran Weather past 2 weeks in Rasht, Iran

Now
73 °F

Passing clouds.


Feels Like: 72 °F
Forecast: 77 / 89 °F
Wind: No wind

Location: Rasht Airport

Current Time: Jul 6, 2015 at 7:19:59 AM

Latest Report: Jul 6, 2015 at 7:00 AM


Visibility: N/A

Pressure: 29.83 "Hg

Humidity: 89%

Dew point: 70 °F

Location of RashtLocation

Historic Weather in Rasht — Graph

°F

Rasht temperature yesterday

Maximum temperature yesterday: 90 °F (at 12:30 PM)
Minimum temperature yesterday: 73 °F (at 6:30 AM)
Average temperature yesterday: 86 °F

Past Weeks' High & Low Weather Summary

 TemperatureHumidityPressure
High93 °F (Jun 22, 4:30 PM)100% (Jun 21, 6:30 AM)30.07 "Hg (Jun 21, 6:30 AM)
Low68 °F (Jun 27, 6:30 AM)36% (Jun 22, 4:30 PM)29.50 "Hg (Jun 26, 4:30 PM)
Average84 °F63%29.76 "Hg
* Reported Jun 20 7:30 PM — Jul 5 8:00 PM, Rasht, Weather by CustomWeather, © 2015

Note: Actual official high and low records may vary slightly from our data, if they occured in-between our weather recording intervals... More about our weather records

Advertising

Rasht weather history for previous 24 hours

 ConditionsComfort  
Time TempWeatherWind HumidityBarometerVisibility
8:00 PM
Sun, Jul 5
84 °FSunny.5 mph66%29.89 "Hg10 mi
7:30 PM84 °FSunny.7 mph66%29.89 "Hg10 mi
7:00 PM86 °FSunny.7 mph52%29.89 "Hg10 mi
6:30 PM86 °FSunny.7 mph52%29.89 "Hg10 mi
6:00 PM86 °FSunny.7 mph55%29.89 "Hg10 mi
5:30 PM86 °FSunny.7 mph55%29.89 "Hg10 mi
5:00 PM88 °FSunny.7 mph52%29.92 "Hg10 mi
4:30 PM88 °FSunny.9 mph52%29.92 "Hg10 mi
4:00 PM88 °FSunny.5 mph52%29.92 "Hg10 mi
3:30 PM88 °FSunny.9 mph52%29.92 "Hg10 mi
3:00 PM90 °FSunny.7 mph49%29.95 "Hg10 mi
2:30 PM90 °FSunny.7 mph49%29.95 "Hg10 mi
2:00 PM90 °FSunny.7 mph49%29.95 "Hg10 mi
1:30 PM90 °FSunny.7 mph49%29.95 "Hg10 mi
1:00 PM90 °FSunny.7 mph41%29.98 "Hg10 mi
12:30 PM90 °FSunny.9 mph41%29.98 "Hg10 mi
12:00 PM88 °FSunny.5 mph43%29.98 "Hg10 mi
11:30 AM88 °FSunny.2 mph43%29.98 "Hg10 mi
11:00 AM86 °FSunny.9 mph40%30.01 "Hg10 mi
10:30 AM86 °FSunny.9 mph40%30.01 "Hg10 mi
10:00 AM86 °FSunny.5 mph43%30.01 "Hg10 mi
9:30 AM86 °FSunny.5 mph43%30.01 "Hg10 mi
9:00 AM82 °FSunny.5 mph45%30.01 "Hg10 mi
8:00 AM79 °FSunny.5 mph51%30.04 "Hg10 mi
7:30 AM79 °FSunny.5 mph51%30.04 "Hg10 mi
Weather by CustomWeather, © 2015

See weather overviewHow to use our weather pages